This is the latest recevied weather packets stored in our database for station/object KC3VCX. If no packets are shown the sender has not sent any weather packets the latest 10 day(s).
| Time | Temp. | Humidity | Pressure | Rain* | Wind** | Luminosity | Snow |
|---|---|---|---|---|---|---|---|
| 1777635802 | 4.44° C | 94% | 1015.6 hPa | 0 mm | - | 62 W/m² | - |
| 1777635494 | 3.89° C | 94% | 1015.6 hPa | 0 mm | - | 55 W/m² | - |
| 1777635190 | 3.89° C | 94% | 1015.7 hPa | 0 mm | - | 37 W/m² | - |
| 1777634887 | 3.33° C | 94% | 1015.8 hPa | 0 mm | - | 39 W/m² | - |
| 1777634584 | 3.89° C | 94% | 1015.8 hPa | 0 mm | - | 32 W/m² | - |
| 1777634281 | 3.89° C | 94% | 1015.8 hPa | 0 mm | - | 47 W/m² | - |
| 1777633977 | 3.33° C | 94% | 1015.7 hPa | 0 mm | - | 59 W/m² | - |
| 1777633674 | 2.78° C | 94% | 1016 hPa | 0 mm | - | 54 W/m² | - |
| 1777633373 | 2.78° C | 94% | 1016 hPa | 0 mm | - | 29 W/m² | - |
| 1777633070 | 2.78° C | 94% | 1015.8 hPa | 0 mm | - | 24 W/m² | - |
| 1777632766 | 2.78° C | 94% | 1015.9 hPa | 0 mm | - | 20 W/m² | - |
| 1777632462 | 2.78° C | 94% | 1015.9 hPa | 0 mm | - | 19 W/m² | - |
| 1777632159 | 2.78° C | 94% | 1016.1 hPa | 0 mm | - | 16 W/m² | - |
| 1777631856 | 2.78° C | 94% | 1015.8 hPa | 0 mm | - | 14 W/m² | - |
| 1777631555 | 2.78° C | 94% | 1015.8 hPa | 0 mm | - | 10 W/m² | - |
| 1777631252 | 2.78° C | 94% | 1015.9 hPa | 0 mm | - | 7 W/m² | - |
| 1777630949 | 2.78° C | 94% | 1015.6 hPa | 0 mm | - | 4 W/m² | - |
| 1777630644 | 2.78° C | 94% | 1015.8 hPa | 0 mm | - | 2 W/m² | - |
| 1777630342 | 2.78° C | 94% | 1015.8 hPa | 0 mm | - | 1 W/m² | - |
| 1777630040 | 2.78° C | 94% | 1015.6 hPa | 0 mm | - | 1 W/m² | - |
| 1777629737 | 2.22° C | 94% | 1015.7 hPa | 0 mm | - | 0 W/m² | - |
| 1777629433 | 2.22° C | 94% | 1015.8 hPa | 0 mm | - | 0 W/m² | - |
| 1777629129 | 2.22° C | 94% | 1015.6 hPa | 0 mm | - | 0 W/m² | - |
| 1777628825 | 2.78° C | 94% | 1015.7 hPa | 0 mm | - | 0 W/m² | - |
| 1777628522 | 2.22° C | 94% | 1015.7 hPa | 0 mm | - | 0 W/m² | - |
* Rain latest hour (hover to see other rain measurements)
** Current wind speed in m/s (hover to see current wind gust speed)